Location: Bagnara
(41.0500°N, 14.7833°E)
Time: 15:46:45
(UTC+00:00)

ADEOS Rocket - Pass Details

Date: 20 June 2021
Orbit: 858 x 1307 km, 98.7° (Epoch: 30 July)

Event Time Altitude Azimuth Distance (km) Brightness Sun altitude
Exits shadow 02:32:26 - 209° (SSW) 3,305 5.2 -9.2°
Reaches altitude 10° 02:32:47 10° 211° (SSW) 3,200 5.1 -9.2°
Maximum altitude 02:38:47 27° 266° (W) 2,094 4.3 -8.3°
Drops below altitude 10° 02:44:25 10° 322° (NW) 2,973 5.6 -7.5°
Sets 02:47:21 0° 334° (NNW) 3,861 6.3 -7.1°
